Time,TemperatureF,DewpointF,PressureIn,WindDirection,WindDirectionDegrees,WindSpeedMPH,WindSpeedGustMPH,Humidity,HourlyPrecipIn,Conditions,Clouds,dailyrainin,SoftwareType,DateUTC
2013-04-30 00:42:00,56.0,55.0,-100.00,South,177,-999.0,-999.0,97,-99.99,,,-99.99,,2013-04-30 07:42:00,
2013-04-30 00:52:00,56.0,55.0,-100.00,South,177,-999.0,-999.0,97,-99.99,,,-99.99,,2013-04-30 07:52:00,
2013-04-30 01:02:00,56.0,55.0,-100.00,South,177,-999.0,-999.0,97,-99.99,,,-99.99,,2013-04-30 08:02:00,
2013-04-30 01:11:00,56.0,55.0,-100.00,South,186,-999.0,0.0,97,-99.99,,,-99.99,,2013-04-30 08:11:00,
2013-04-30 01:21:00,56.0,55.0,-100.00,South,186,-999.0,0.0,97,-99.99,,,-99.99,,2013-04-30 08:21:00,
2013-04-30 01:32:00,56.0,55.0,-100.00,South,186,-999.0,0.0,97,-99.99,,,-99.99,,2013-04-30 08:32:00,
2013-04-30 01:41:00,56.0,56.0,-100.00,South,169,-999.0,0.0,98,-99.99,,,-99.99,,2013-04-30 08:41:00,
2013-04-30 01:52:00,56.0,56.0,-100.00,South,169,-999.0,0.0,98,-99.99,,,-99.99,,2013-04-30 08:52:00,
2013-04-30 02:01:00,56.0,56.0,-100.00,South,169,-999.0,0.0,98,-99.99,,,-99.99,,2013-04-30 09:01:00,
2013-04-30 02:11:00,56.0,56.0,-100.00,South,169,-999.0,0.0,98,-99.99,,,-99.99,,2013-04-30 09:11:00,
2013-04-30 04:01:00,56.0,56.0,-100.00,SSE,167,-999.0,0.0,99,-99.99,,,-99.99,,2013-04-30 11:01:00,
2013-04-30 04:11:00,56.0,56.0,-100.00,SSE,167,-999.0,0.0,99,-99.99,,,-99.99,,2013-04-30 11:11:00,
2013-04-30 04:21:00,56.0,56.0,-100.00,SSE,167,-999.0,0.0,99,-99.99,,,-99.99,,2013-04-30 11:21:00,
2013-04-30 04:31:00,56.0,56.0,-100.00,SSE,167,-999.0,0.0,99,-99.99,,,-99.99,,2013-04-30 11:31:00,
2013-04-30 04:42:00,56.0,56.0,-100.00,SSE,167,-999.0,0.0,99,-99.99,,,-99.99,,2013-04-30 11:42:00,
2013-04-30 06:41:00,55.0,55.0,-100.00,SSW,209,-999.0,0.0,100,-99.99,,,-99.99,,2013-04-30 13:41:00,
2013-04-30 06:52:00,55.0,55.0,-100.00,SSW,209,-999.0,0.0,100,-99.99,,,-99.99,,2013-04-30 13:52:00,
2013-04-30 07:01:00,55.0,55.0,-100.00,SSW,209,-999.0,0.0,100,-99.99,,,-99.99,,2013-04-30 14:01:00,
2013-04-30 07:11:00,55.0,55.0,-100.00,SSW,209,-999.0,0.0,100,-99.99,,,-99.99,,2013-04-30 14:11:00,
2013-04-30 09:12:00,57.0,57.0,-100.00,West,280,-999.0,-999.0,99,-99.99,,,-99.99,,2013-04-30 16:12:00,
2013-04-30 09:22:00,57.0,57.0,-100.00,West,280,-999.0,-999.0,99,-99.99,,,-99.99,,2013-04-30 16:22:00,
2013-04-30 09:33:00,57.0,57.0,-100.00,West,280,-999.0,-999.0,99,-99.99,,,-99.99,,2013-04-30 16:33:00,
2013-04-30 09:42:00,57.0,57.0,-100.00,West,280,-999.0,-999.0,99,-99.99,,,-99.99,,2013-04-30 16:42:00,
2013-04-30 10:12:00,60.0,-99.9,-100.00,SW,228,-999.0,0.0,-999,-99.99,,,-99.99,,2013-04-30 17:12:00,
2013-04-30 10:22:00,60.0,-99.9,-100.00,SW,228,-999.0,0.0,-999,-99.99,,,-99.99,,2013-04-30 17:22:00,
2013-04-30 10:32:00,60.0,-99.9,-100.00,SW,228,-999.0,0.0,-999,-99.99,,,-99.99,,2013-04-30 17:32:00,
2013-04-30 10:42:00,60.0,-99.9,-100.00,SW,228,-999.0,0.0,-999,-99.99,,,-99.99,,2013-04-30 17:42:00,
2013-04-30 11:42:00,63.0,-99.9,-100.00,WSW,237,-999.0,4.0,-999,-99.99,,,-99.99,,2013-04-30 18:42:00,
2013-04-30 11:52:00,63.0,-99.9,-100.00,WSW,237,-999.0,4.0,-999,-99.99,,,-99.99,,2013-04-30 18:52:00,
2013-04-30 12:02:00,63.0,-99.9,-100.00,WSW,237,-999.0,4.0,-999,-99.99,,,-99.99,,2013-04-30 19:02:00,
2013-04-30 12:11:00,63.0,55.0,-100.00,SSW,198,-999.0,7.0,76,-99.99,,,-99.99,,2013-04-30 19:11:00,
2013-04-30 12:21:00,63.0,55.0,-100.00,SSW,198,-999.0,7.0,76,-99.99,,,-99.99,,2013-04-30 19:21:00,
2013-04-30 12:31:00,63.0,55.0,-100.00,SSW,198,-999.0,7.0,76,-99.99,,,-99.99,,2013-04-30 19:31:00,
2013-04-30 12:41:00,63.0,54.0,-100.00,SW,215,-999.0,8.0,72,-99.99,,,-99.99,,2013-04-30 19:41:00,
2013-04-30 12:52:00,63.0,54.0,-100.00,SW,215,-999.0,8.0,72,-99.99,,,-99.99,,2013-04-30 19:52:00,
2013-04-30 13:02:00,63.0,54.0,-100.00,SW,215,-999.0,8.0,72,-99.99,,,-99.99,,2013-04-30 20:02:00,
2013-04-30 13:11:00,65.0,55.0,-100.00,SW,225,-999.0,-999.0,71,-99.99,,,-99.99,,2013-04-30 20:11:00,
2013-04-30 13:21:00,65.0,55.0,-100.00,SW,225,-999.0,-999.0,71,-99.99,,,-99.99,,2013-04-30 20:21:00,
2013-04-30 13:32:00,65.0,55.0,-100.00,SW,225,-999.0,-999.0,71,-99.99,,,-99.99,,2013-04-30 20:32:00,
2013-04-30 13:42:00,64.0,54.0,-100.00,South,174,-999.0,-999.0,70,-99.99,,,-99.99,,2013-04-30 20:42:00,
2013-04-30 13:52:00,64.0,54.0,-100.00,South,174,-999.0,-999.0,70,-99.99,,,-99.99,,2013-04-30 20:52:00,
2013-04-30 14:01:00,65.0,55.0,-100.00,West,280,-999.0,-999.0,70,-99.99,,,-99.99,,2013-04-30 21:01:00,
2013-04-30 14:11:00,65.0,55.0,-100.00,West,280,-999.0,-999.0,70,-99.99,,,-99.99,,2013-04-30 21:11:00,
2013-04-30 14:22:00,65.0,55.0,-100.00,West,280,-999.0,-999.0,70,-99.99,,,-99.99,,2013-04-30 21:22:00,
2013-04-30 14:32:00,65.0,55.0,-100.00,West,280,-999.0,-999.0,70,-99.99,,,-99.99,,2013-04-30 21:32:00,
2013-04-30 14:42:00,65.0,55.0,-100.00,West,280,-999.0,-999.0,70,-99.99,,,-99.99,,2013-04-30 21:42:00,
2013-04-30 15:42:00,63.0,54.0,-100.00,SW,215,-999.0,8.0,73,-99.99,,,-99.99,,2013-04-30 22:42:00,
2013-04-30 15:53:00,63.0,54.0,-100.00,SW,215,-999.0,8.0,73,-99.99,,,-99.99,,2013-04-30 22:53:00,
2013-04-30 16:02:00,63.0,54.0,-100.00,SW,215,-999.0,8.0,73,-99.99,,,-99.99,,2013-04-30 23:02:00,
2013-04-30 16:11:00,64.0,55.0,-100.00,South,173,-999.0,10.0,73,-99.99,,,-99.99,,2013-04-30 23:11:00,
2013-04-30 16:21:00,64.0,55.0,-100.00,South,173,-999.0,10.0,73,-99.99,,,-99.99,,2013-04-30 23:21:00,
2013-04-30 16:32:00,64.0,55.0,-100.00,South,173,-999.0,10.0,73,-99.99,,,-99.99,,2013-04-30 23:32:00,
2013-04-30 16:42:00,62.0,55.0,-100.00,SSW,210,-999.0,7.0,77,-99.99,,,-99.99,,2013-04-30 23:42:00,
2013-04-30 16:52:00,62.0,55.0,-100.00,SSW,210,-999.0,7.0,77,-99.99,,,-99.99,,2013-04-30 23:52:00,
2013-04-30 17:01:00,62.0,55.0,-100.00,SSW,210,-999.0,7.0,77,-99.99,,,-99.99,,2013-05-01 00:01:00,
2013-04-30 17:11:00,62.0,55.0,-100.00,South,180,-999.0,7.0,77,-99.99,,,-99.99,,2013-05-01 00:11:00,
2013-04-30 17:21:00,62.0,55.0,-100.00,South,180,-999.0,7.0,77,-99.99,,,-99.99,,2013-05-01 00:21:00,
2013-04-30 17:31:00,61.0,54.0,-100.00,SW,225,-999.0,7.0,78,-99.99,,,-99.99,,2013-05-01 00:31:00,
2013-04-30 17:42:00,61.0,54.0,-100.00,SW,225,-999.0,7.0,78,-99.99,,,-99.99,,2013-05-01 00:42:00,
2013-04-30 17:52:00,61.0,54.0,-100.00,SW,225,-999.0,7.0,78,-99.99,,,-99.99,,2013-05-01 00:52:00,
2013-04-30 18:01:00,61.0,54.0,-100.00,SW,225,-999.0,7.0,78,-99.99,,,-99.99,,2013-05-01 01:01:00,
2013-04-30 18:11:00,61.0,55.0,-100.00,SSW,199,-999.0,8.0,79,-99.99,,,-99.99,,2013-05-01 01:11:00,
2013-04-30 18:21:00,61.0,55.0,-100.00,SSW,199,-999.0,8.0,79,-99.99,,,-99.99,,2013-05-01 01:21:00,
2013-04-30 18:31:00,61.0,55.0,-100.00,SSW,199,-999.0,8.0,79,-99.99,,,-99.99,,2013-05-01 01:31:00,
2013-04-30 18:41:00,61.0,55.0,-100.00,SSW,209,-999.0,6.0,81,-99.99,,,-99.99,,2013-05-01 01:41:00,
2013-04-30 18:52:00,61.0,55.0,-100.00,SSW,209,-999.0,6.0,81,-99.99,,,-99.99,,2013-05-01 01:52:00,
2013-04-30 19:02:00,61.0,55.0,-100.00,SSW,209,-999.0,6.0,81,-99.99,,,-99.99,,2013-05-01 02:02:00,
2013-04-30 19:11:00,60.0,55.0,-100.00,South,189,-999.0,3.0,83,-99.99,,,-99.99,,2013-05-01 02:11:00,
2013-04-30 19:21:00,60.0,55.0,-100.00,South,189,-999.0,3.0,83,-99.99,,,-99.99,,2013-05-01 02:21:00,
2013-04-30 19:32:00,60.0,55.0,-100.00,South,189,-999.0,3.0,83,-99.99,,,-99.99,,2013-05-01 02:32:00,
2013-04-30 19:42:00,59.0,55.0,-100.00,SW,230,-999.0,6.0,85,-99.99,,,-99.99,,2013-05-01 02:42:00,
2013-04-30 19:52:00,59.0,55.0,-100.00,SW,230,-999.0,6.0,85,-99.99,,,-99.99,,2013-05-01 02:52:00,
2013-04-30 20:01:00,59.0,55.0,-100.00,SW,230,-999.0,6.0,85,-99.99,,,-99.99,,2013-05-01 03:01:00,
2013-04-30 20:11:00,59.0,55.0,-100.00,SW,230,-999.0,6.0,85,-99.99,,,-99.99,,2013-05-01 03:11:00,
2013-04-30 20:43:00,56.0,55.0,-100.00,WSW,247,-999.0,0.0,94,-99.99,,,-99.99,,2013-05-01 03:43:00,
2013-04-30 20:53:00,56.0,55.0,-100.00,WSW,247,-999.0,0.0,94,-99.99,,,-99.99,,2013-05-01 03:53:00,
2013-04-30 21:03:00,56.0,55.0,-100.00,WSW,247,-999.0,0.0,94,-99.99,,,-99.99,,2013-05-01 04:03:00,
2013-04-30 21:12:00,56.0,55.0,-100.00,WSW,247,-999.0,0.0,95,-99.99,,,-99.99,,2013-05-01 04:12:00,
2013-04-30 21:22:00,56.0,55.0,-100.00,WSW,247,-999.0,0.0,95,-99.99,,,-99.99,,2013-05-01 04:22:00,
2013-04-30 21:32:00,55.0,54.0,-100.00,WSW,247,-999.0,0.0,95,-99.99,,,-99.99,,2013-05-01 04:32:00,
2013-04-30 21:42:00,55.0,54.0,-100.00,WSW,247,-999.0,0.0,95,-99.99,,,-99.99,,2013-05-01 04:42:00,
2013-04-30 21:52:00,55.0,54.0,-100.00,WSW,247,-999.0,0.0,95,-99.99,,,-99.99,,2013-05-01 04:52:00,
2013-04-30 22:02:00,55.0,54.0,-100.00,WSW,247,-999.0,0.0,95,-99.99,,,-99.99,,2013-05-01 05:02:00,
2013-04-30 22:11:00,56.0,54.0,-100.00,WSW,247,-999.0,0.0,94,-99.99,,,-99.99,,2013-05-01 05:11:00,
2013-04-30 22:21:00,56.0,54.0,-100.00,WSW,247,-999.0,0.0,94,-99.99,,,-99.99,,2013-05-01 05:21:00,
2013-04-30 22:32:00,56.0,54.0,-100.00,WSW,247,-999.0,0.0,94,-99.99,,,-99.99,,2013-05-01 05:32:00,
2013-04-30 22:41:00,55.0,53.0,-100.00,WSW,247,-999.0,0.0,94,-99.99,,,-99.99,,2013-05-01 05:41:00,
2013-04-30 22:52:00,55.0,53.0,-100.00,WSW,247,-999.0,0.0,94,-99.99,,,-99.99,,2013-05-01 05:52:00,
2013-04-30 23:02:00,55.0,53.0,-100.00,WSW,247,-999.0,0.0,94,-99.99,,,-99.99,,2013-05-01 06:02:00,
2013-04-30 23:11:00,56.0,54.0,-100.00,WSW,247,-999.0,0.0,92,-99.99,,,-99.99,,2013-05-01 06:11:00,
2013-04-30 23:22:00,56.0,54.0,-100.00,WSW,247,-999.0,0.0,92,-99.99,,,-99.99,,2013-05-01 06:22:00,
2013-04-30 23:32:00,56.0,54.0,-100.00,WSW,247,-999.0,0.0,92,-99.99,,,-99.99,,2013-05-01 06:32:00,
2013-04-30 23:42:00,56.0,54.0,-100.00,WSW,247,-999.0,-999.0,91,-99.99,,,-99.99,,2013-05-01 06:42:00,
2013-04-30 23:52:00,56.0,54.0,-100.00,WSW,247,-999.0,-999.0,91,-99.99,,,-99.99,,2013-05-01 06:52:00,